Time,TemperatureF,DewpointF,PressureIn,WindDirection,WindDirectionDegrees,WindSpeedMPH,WindSpeedGustMPH,Humidity,HourlyPrecipIn,Conditions,Clouds,dailyrainin,SoftwareType,DateUTC
2013-08-21 00:00:00,71.0,70.1,30.12,East,84,1.0,3.0,97,0.00,,---,0.00,VWS V14.01,2013-08-21 04:00:00,
2013-08-21 00:13:00,71.7,71.0,30.14,ENE,61,0.0,3.0,96,0.00,,,0.00,weatherlink.com 1.10,2013-08-21 04:13:00,
2013-08-21 00:29:00,71.5,70.0,30.13,NNE,13,0.0,1.0,96,0.00,,,0.00,weatherlink.com 1.10,2013-08-21 04:29:00,
2013-08-21 00:46:00,71.3,70.0,30.13,NNE,13,0.0,1.0,96,0.00,,,0.00,weatherlink.com 1.10,2013-08-21 04:46:00,
2013-08-21 01:02:00,71.2,70.0,30.13,NNE,16,0.0,2.0,97,0.00,,,0.00,weatherlink.com 1.10,2013-08-21 05:02:00,
2013-08-21 01:19:00,71.0,70.0,30.13,NE,36,0.0,1.0,97,0.00,,,0.00,weatherlink.com 1.10,2013-08-21 05:19:00,
2013-08-21 01:36:00,71.0,70.0,30.12,East,88,2.0,2.0,97,0.00,,,0.00,weatherlink.com 1.10,2013-08-21 05:36:00,
2013-08-21 01:52:00,71.0,70.0,30.12,ENE,60,3.0,3.0,97,0.00,,,0.00,weatherlink.com 1.10,2013-08-21 05:52:00,
2013-08-21 02:00:00,71.1,70.5,30.10,ENE,70,2.0,5.0,98,0.04,,---,0.04,VWS V14.01,2013-08-21 06:00:00,
2013-08-21 02:08:00,71.0,70.0,30.12,ENE,69,2.0,3.0,97,0.00,,,0.00,weatherlink.com 1.10,2013-08-21 06:08:00,
2013-08-21 02:25:00,71.1,70.0,30.11,ENE,76,0.0,2.0,97,0.00,,,0.00,weatherlink.com 1.10,2013-08-21 06:25:00,
2013-08-21 02:41:00,71.1,70.0,30.11,NE,47,0.0,5.0,97,0.04,,,0.04,weatherlink.com 1.10,2013-08-21 06:41:00,
2013-08-21 02:57:00,71.0,70.0,30.10,ENE,69,1.0,3.0,97,0.04,,,0.04,weatherlink.com 1.10,2013-08-21 06:57:00,
2013-08-21 03:14:00,71.0,70.0,30.10,NE,55,2.0,3.0,97,0.04,,,0.04,weatherlink.com 1.10,2013-08-21 07:14:00,
2013-08-21 03:30:00,71.1,71.0,30.10,SE,141,0.0,5.0,98,0.01,,,0.04,weatherlink.com 1.10,2013-08-21 07:30:00,
2013-08-21 03:46:00,71.2,71.0,30.09,East,82,2.0,5.0,98,0.00,,,0.04,weatherlink.com 1.10,2013-08-21 07:46:00,
2013-08-21 04:00:00,70.8,70.2,30.10,NE,47,0.0,7.0,98,0.00,,---,0.04,VWS V14.01,2013-08-21 08:00:00,
2013-08-21 04:04:00,71.2,71.0,30.09,East,92,2.0,5.0,98,0.00,,,0.04,weatherlink.com 1.10,2013-08-21 08:04:00,
2013-08-21 04:20:00,71.0,70.0,30.08,NE,46,2.0,5.0,98,0.00,,,0.04,weatherlink.com 1.10,2013-08-21 08:20:00,
2013-08-21 04:36:00,70.9,70.0,30.08,North,10,3.0,7.0,98,0.00,,,0.04,weatherlink.com 1.10,2013-08-21 08:36:00,
2013-08-21 04:52:00,70.9,70.0,30.08,NNE,29,2.0,3.0,98,0.00,,,0.04,weatherlink.com 1.10,2013-08-21 08:52:00,
2013-08-21 05:09:00,70.9,70.0,30.09,East,91,1.0,4.0,98,0.00,,,0.04,weatherlink.com 1.10,2013-08-21 09:09:00,
2013-08-21 05:25:00,70.9,70.0,30.10,ENE,69,2.0,5.0,98,0.00,,,0.04,weatherlink.com 1.10,2013-08-21 09:25:00,
2013-08-21 05:41:00,70.8,70.0,30.09,NNW,336,1.0,3.0,98,0.00,,,0.04,weatherlink.com 1.10,2013-08-21 09:41:00,
2013-08-21 05:59:00,70.7,70.0,30.11,ESE,111,0.0,1.0,98,0.00,,,0.04,weatherlink.com 1.10,2013-08-21 09:59:00,
2013-08-21 06:00:00,70.2,69.6,30.14,SE,138,0.0,5.0,98,0.01,,---,0.05,VWS V14.01,2013-08-21 10:00:00,
2013-08-21 06:14:00,70.8,70.0,30.12,SSE,152,2.0,5.0,98,0.00,,,0.04,weatherlink.com 1.10,2013-08-21 10:14:00,
2013-08-21 06:31:00,70.5,70.0,30.13,SE,142,0.0,6.0,98,0.00,,,0.04,weatherlink.com 1.10,2013-08-21 10:31:00,
2013-08-21 06:48:00,70.3,70.0,30.13,SE,130,0.0,4.0,98,0.00,,,0.04,weatherlink.com 1.10,2013-08-21 10:48:00,
2013-08-21 07:04:00,70.2,70.0,30.13,ESE,120,1.0,2.0,98,0.00,,,0.04,weatherlink.com 1.10,2013-08-21 11:04:00,
2013-08-21 07:20:00,70.2,70.0,30.14,SE,139,0.0,1.0,98,0.00,,,0.04,weatherlink.com 1.10,2013-08-21 11:20:00,
2013-08-21 07:37:00,70.2,70.0,30.14,SE,138,0.0,1.0,98,0.01,,,0.05,weatherlink.com 1.10,2013-08-21 11:37:00,
2013-08-21 07:53:00,70.1,70.0,30.14,SE,138,0.0,2.0,98,0.02,,,0.06,weatherlink.com 1.10,2013-08-21 11:53:00,
2013-08-21 08:00:00,70.8,69.9,30.17,NE,46,2.0,4.0,97,0.02,,---,0.07,VWS V14.01,2013-08-21 12:00:00,
2013-08-21 08:09:00,70.1,70.0,30.14,ESE,119,2.0,4.0,98,0.02,,,0.06,weatherlink.com 1.10,2013-08-21 12:09:00,
2013-08-21 08:26:00,70.0,69.0,30.15,ESE,105,1.0,3.0,98,0.01,,,0.06,weatherlink.com 1.10,2013-08-21 12:26:00,
2013-08-21 08:43:00,70.1,70.0,30.16,East,82,0.0,4.0,98,0.01,,,0.06,weatherlink.com 1.10,2013-08-21 12:43:00,
2013-08-21 08:59:00,70.4,70.0,30.16,NNE,26,0.0,4.0,98,0.00,,,0.06,weatherlink.com 1.10,2013-08-21 12:59:00,
2013-08-21 09:15:00,70.6,70.0,30.17,NE,46,0.0,3.0,98,0.00,,,0.06,weatherlink.com 1.10,2013-08-21 13:15:00,
2013-08-21 09:32:00,70.7,70.0,30.17,ENE,77,0.0,3.0,97,0.01,,,0.07,weatherlink.com 1.10,2013-08-21 13:32:00,
2013-08-21 09:49:00,70.8,70.0,30.17,East,79,0.0,4.0,97,0.01,,,0.07,weatherlink.com 1.10,2013-08-21 13:49:00,
2013-08-21 10:00:00,71.3,69.8,30.20,East,79,0.0,6.0,95,0.00,,---,0.07,VWS V14.01,2013-08-21 14:00:00,
2013-08-21 10:05:00,70.9,70.0,30.18,ENE,76,1.0,4.0,97,0.01,,,0.07,weatherlink.com 1.10,2013-08-21 14:05:00,
2013-08-21 10:21:00,71.2,70.0,30.18,SE,146,1.0,5.0,97,0.01,,,0.07,weatherlink.com 1.10,2013-08-21 14:21:00,
2013-08-21 10:38:00,71.2,70.0,30.19,SE,134,2.0,6.0,96,0.00,,,0.07,weatherlink.com 1.10,2013-08-21 14:38:00,
2013-08-21 10:54:00,71.3,70.0,30.19,ESE,116,0.0,4.0,96,0.00,,,0.07,weatherlink.com 1.10,2013-08-21 14:54:00,
2013-08-21 11:11:00,71.3,70.0,30.19,SE,131,1.0,4.0,96,0.00,,,0.07,weatherlink.com 1.10,2013-08-21 15:11:00,
2013-08-21 11:28:00,71.5,70.0,30.20,NE,52,4.0,4.0,95,0.00,,,0.07,weatherlink.com 1.10,2013-08-21 15:28:00,
2013-08-21 11:43:00,71.2,70.0,30.19,ENE,77,0.0,2.0,95,0.00,,,0.07,weatherlink.com 1.10,2013-08-21 15:43:00,
2013-08-21 12:00:00,71.2,70.0,30.20,NE,49,4.0,5.0,96,0.00,,,0.07,weatherlink.com 1.10,2013-08-21 16:00:00,
2013-08-21 12:16:00,71.2,70.0,30.19,ENE,58,3.0,5.0,96,0.00,,,0.07,weatherlink.com 1.10,2013-08-21 16:16:00,
2013-08-21 12:33:00,71.4,70.0,30.19,East,96,2.0,5.0,96,0.00,,,0.07,weatherlink.com 1.10,2013-08-21 16:33:00,
2013-08-21 12:49:00,71.6,70.0,30.18,NE,56,3.0,6.0,96,0.00,,,0.07,weatherlink.com 1.10,2013-08-21 16:49:00,
2013-08-21 13:06:00,71.8,71.0,30.18,ENE,69,1.0,5.0,96,0.00,,,0.07,weatherlink.com 1.10,2013-08-21 17:06:00,
2013-08-21 13:22:00,72.2,71.0,30.17,ENE,70,3.0,6.0,95,0.00,,,0.07,weatherlink.com 1.10,2013-08-21 17:22:00,
2013-08-21 13:38:00,73.5,71.0,30.17,NNE,24,7.0,8.0,92,0.00,,,0.07,weatherlink.com 1.10,2013-08-21 17:38:00,
2013-08-21 13:55:00,73.8,71.0,30.16,NNE,19,2.0,5.0,90,0.00,,,0.07,weatherlink.com 1.10,2013-08-21 17:55:00,
2013-08-21 14:00:00,78.7,71.6,30.13,West,276,2.0,7.0,79,0.00,,---,0.07,VWS V14.01,2013-08-21 18:00:00,
2013-08-21 14:11:00,75.3,72.0,30.16,WNW,298,1.0,4.0,89,0.00,,,0.07,weatherlink.com 1.10,2013-08-21 18:11:00,
2013-08-21 14:28:00,76.0,71.0,30.15,ENE,63,3.0,7.0,84,0.00,,,0.07,weatherlink.com 1.10,2013-08-21 18:28:00,
2013-08-21 14:45:00,76.5,71.0,30.15,ESE,119,0.0,3.0,84,0.00,,,0.07,weatherlink.com 1.10,2013-08-21 18:45:00,
2013-08-21 15:01:00,77.1,71.0,30.14,ENE,78,1.0,1.0,82,0.00,,,0.07,weatherlink.com 1.10,2013-08-21 19:01:00,
2013-08-21 15:17:00,78.1,72.0,30.14,WSW,250,1.0,3.0,80,0.00,,,0.07,weatherlink.com 1.10,2013-08-21 19:17:00,
2013-08-21 15:34:00,78.9,72.0,30.14,SW,229,1.0,2.0,79,0.00,,,0.07,weatherlink.com 1.10,2013-08-21 19:34:00,
2013-08-21 15:50:00,78.2,72.0,30.13,WSW,258,1.0,4.0,81,0.00,,,0.07,weatherlink.com 1.10,2013-08-21 19:50:00,
2013-08-21 16:00:00,77.8,72.2,30.11,East,96,0.0,5.0,83,0.00,,---,0.07,VWS V14.01,2013-08-21 20:00:00,
2013-08-21 16:07:00,79.0,72.0,30.12,SSE,161,1.0,2.0,78,0.00,,,0.07,weatherlink.com 1.10,2013-08-21 20:07:00,
2013-08-21 16:24:00,79.6,72.0,30.11,WSW,247,0.0,4.0,77,0.00,,,0.07,weatherlink.com 1.10,2013-08-21 20:24:00,
2013-08-21 16:40:00,79.6,72.0,30.11,South,188,0.0,4.0,77,0.00,,,0.07,weatherlink.com 1.10,2013-08-21 20:40:00,
2013-08-21 16:56:00,80.1,72.0,30.11,South,179,1.0,3.0,76,0.00,,,0.07,weatherlink.com 1.10,2013-08-21 20:56:00,
2013-08-21 17:13:00,78.8,72.0,30.11,SE,128,1.0,3.0,80,0.00,,,0.07,weatherlink.com 1.10,2013-08-21 21:13:00,
2013-08-21 17:29:00,78.0,72.0,30.11,ESE,104,1.0,4.0,82,0.00,,,0.07,weatherlink.com 1.10,2013-08-21 21:29:00,
2013-08-21 17:45:00,77.8,72.0,30.11,SE,138,2.0,3.0,83,0.00,,,0.07,weatherlink.com 1.10,2013-08-21 21:45:00,
2013-08-21 18:00:00,77.9,72.7,30.08,SSE,155,3.0,6.0,84,0.00,,---,0.07,VWS V14.01,2013-08-21 22:00:00,
2013-08-21 18:02:00,77.7,73.0,30.10,SSE,147,0.0,2.0,84,0.00,,,0.07,weatherlink.com 1.10,2013-08-21 22:02:00,
2013-08-21 18:19:00,77.8,73.0,30.09,SSE,147,0.0,2.0,84,0.00,,,0.07,weatherlink.com 1.10,2013-08-21 22:19:00,
2013-08-21 18:35:00,77.7,73.0,30.08,South,182,1.0,3.0,84,0.00,,,0.07,weatherlink.com 1.10,2013-08-21 22:35:00,
2013-08-21 18:52:00,77.4,73.0,30.07,SSE,158,4.0,6.0,85,0.00,,,0.07,weatherlink.com 1.10,2013-08-21 22:52:00,
2013-08-21 19:08:00,77.6,73.0,30.07,SSW,206,3.0,6.0,85,0.00,,,0.07,weatherlink.com 1.10,2013-08-21 23:08:00,
2013-08-21 19:24:00,77.9,73.0,30.07,SSE,157,1.0,3.0,85,0.00,,,0.07,weatherlink.com 1.10,2013-08-21 23:24:00,
2013-08-21 19:41:00,77.8,73.0,30.07,SE,144,2.0,5.0,84,0.00,,,0.07,weatherlink.com 1.10,2013-08-21 23:41:00,
2013-08-21 19:57:00,76.9,73.0,30.08,SSE,161,0.0,3.0,87,0.00,,,0.07,weatherlink.com 1.10,2013-08-21 23:57:00,
2013-08-21 20:00:00,74.5,72.3,30.12,ENE,66,0.0,5.0,93,0.00,,---,0.07,VWS V14.01,2013-08-22 00:00:00,
2013-08-21 20:13:00,76.5,73.0,30.09,SSE,154,0.0,0.0,88,0.00,,,0.07,weatherlink.com 1.10,2013-08-22 00:13:00,
2013-08-21 20:30:00,76.1,73.0,30.10,WNW,286,0.0,2.0,89,0.00,,,0.07,weatherlink.com 1.10,2013-08-22 00:30:00,
2013-08-21 20:47:00,75.6,73.0,30.11,WNW,289,0.0,2.0,91,0.00,,,0.07,weatherlink.com 1.10,2013-08-22 00:47:00,
2013-08-21 21:03:00,75.2,73.0,30.11,WNW,288,0.0,1.0,92,0.00,,,0.07,weatherlink.com 1.10,2013-08-22 01:03:00,
2013-08-21 21:19:00,74.8,73.0,30.11,ENE,66,0.0,1.0,93,0.00,,,0.07,weatherlink.com 1.10,2013-08-22 01:19:00,
2013-08-21 21:36:00,74.5,72.0,30.12,ENE,65,0.0,0.0,93,0.00,,,0.07,weatherlink.com 1.10,2013-08-22 01:36:00,
2013-08-21 21:52:00,74.3,73.0,30.12,ENE,66,0.0,0.0,94,0.00,,,0.07,weatherlink.com 1.10,2013-08-22 01:52:00,
2013-08-21 22:00:00,73.0,71.8,30.11,ENE,66,1.0,1.0,96,0.00,,---,0.07,VWS V14.01,2013-08-22 02:00:00,
2013-08-21 22:09:00,74.1,72.0,30.12,ENE,66,0.0,0.0,94,0.00,,,0.07,weatherlink.com 1.10,2013-08-22 02:09:00,
2013-08-21 22:25:00,73.9,72.0,30.12,ENE,66,0.0,1.0,94,0.00,,,0.07,weatherlink.com 1.10,2013-08-22 02:25:00,
2013-08-21 22:42:00,73.6,72.0,30.12,ENE,65,0.0,1.0,95,0.00,,,0.07,weatherlink.com 1.10,2013-08-22 02:42:00,
2013-08-21 22:58:00,73.4,72.0,30.11,ENE,66,0.0,1.0,95,0.00,,,0.07,weatherlink.com 1.10,2013-08-22 02:58:00,
2013-08-21 23:14:00,73.3,72.0,30.10,ENE,66,0.0,1.0,95,0.00,,,0.07,weatherlink.com 1.10,2013-08-22 03:14:00,
2013-08-21 23:30:00,73.0,72.0,30.11,ENE,65,0.0,0.0,95,0.00,,,0.07,weatherlink.com 1.10,2013-08-22 03:30:00,
2013-08-21 23:48:00,72.9,72.0,30.11,NE,36,0.0,3.0,96,0.00,,,0.07,weatherlink.com 1.10,2013-08-22 03:48:00,